TimeEDT,TemperatureF,Dew PointF,Humidity,Sea Level PressureIn,VisibilityMPH,Wind Direction,Wind SpeedMPH,Gust SpeedMPH,PrecipitationIn,Events,Conditions,WindDirDegrees,DateUTC
12:15 AM,71.6,69.8,94,29.93,7.0,SW,4.6,-,N/A,,Clear,230,2013-08-31 04:15:00
12:35 AM,71.6,69.8,94,29.94,7.0,SW,4.6,-,N/A,,Scattered Clouds,220,2013-08-31 04:35:00
12:55 AM,71.6,69.8,94,29.93,7.0,SW,3.5,-,N/A,,Overcast,220,2013-08-31 04:55:00
1:15 AM,71.6,69.8,94,29.92,6.0,West,3.5,-,N/A,,Overcast,270,2013-08-31 05:15:00
1:35 AM,71.6,69.8,94,29.92,5.0,South,3.5,-,N/A,,Overcast,190,2013-08-31 05:35:00
1:55 AM,71.6,69.8,94,29.91,4.0,South,3.5,-,N/A,,Overcast,180,2013-08-31 05:55:00
2:15 AM,71.6,69.8,94,29.91,4.0,SSW,4.6,-,N/A,,Mostly Cloudy,200,2013-08-31 06:15:00
2:35 AM,71.6,69.8,94,29.91,5.0,Calm,Calm,-,N/A,,Scattered Clouds,0,2013-08-31 06:35:00
2:55 AM,71.6,69.8,94,29.91,5.0,SSW,3.5,-,N/A,,Scattered Clouds,210,2013-08-31 06:55:00
3:15 AM,71.6,69.8,94,29.91,6.0,Calm,Calm,-,N/A,,Partly Cloudy,0,2013-08-31 07:15:00
3:35 AM,71.6,69.8,94,29.91,5.0,Calm,Calm,-,N/A,,Clear,0,2013-08-31 07:35:00
3:55 AM,71.6,69.8,94,29.91,5.0,Calm,Calm,-,N/A,,Clear,0,2013-08-31 07:55:00
4:15 AM,71.6,69.8,94,29.90,7.0,Calm,Calm,-,N/A,,Partly Cloudy,0,2013-08-31 08:15:00
4:35 AM,71.6,69.8,94,29.90,7.0,Calm,Calm,-,N/A,,Partly Cloudy,0,2013-08-31 08:35:00
4:55 AM,69.8,69.8,100,29.90,5.0,Calm,Calm,-,N/A,,Partly Cloudy,0,2013-08-31 08:55:00
5:15 AM,71.6,69.8,94,29.91,7.0,Calm,Calm,-,N/A,,Partly Cloudy,0,2013-08-31 09:15:00
5:35 AM,69.8,69.8,100,29.91,7.0,Calm,Calm,-,N/A,,Partly Cloudy,0,2013-08-31 09:35:00
5:55 AM,69.8,69.8,100,29.90,7.0,Calm,Calm,-,N/A,,Partly Cloudy,0,2013-08-31 09:55:00
6:15 AM,69.8,69.8,100,29.90,5.0,Calm,Calm,-,N/A,,Clear,0,2013-08-31 10:15:00
6:35 AM,69.8,69.8,100,29.90,5.0,Calm,Calm,-,N/A,,Clear,0,2013-08-31 10:35:00
6:55 AM,69.8,69.8,100,29.91,3.0,Calm,Calm,-,N/A,,Clear,0,2013-08-31 10:55:00
7:15 AM,69.8,69.8,100,29.91,4.0,Calm,Calm,-,N/A,,Clear,0,2013-08-31 11:15:00
7:35 AM,71.6,69.8,94,29.91,4.0,Calm,Calm,-,N/A,,Partly Cloudy,0,2013-08-31 11:35:00
7:55 AM,71.6,69.8,94,29.91,5.0,South,3.5,-,N/A,,Mostly Cloudy,190,2013-08-31 11:55:00
8:15 AM,71.6,69.8,94,29.91,6.0,WSW,3.5,-,N/A,,Overcast,240,2013-08-31 12:15:00
8:35 AM,73.4,69.8,88,29.91,8.0,WSW,4.6,-,N/A,,Overcast,250,2013-08-31 12:35:00
8:55 AM,73.4,69.8,88,29.91,9.0,West,3.5,-,N/A,,Overcast,260,2013-08-31 12:55:00
9:15 AM,73.4,69.8,88,29.91,10.0,SW,3.5,-,N/A,,Mostly Cloudy,230,2013-08-31 13:15:00
9:35 AM,75.2,69.8,83,29.91,10.0,SW,6.9,-,N/A,,Scattered Clouds,220,2013-08-31 13:35:00
9:55 AM,75.2,69.8,83,29.91,10.0,SW,3.5,-,N/A,,Partly Cloudy,230,2013-08-31 13:55:00
10:15 AM,77.0,71.6,83,29.91,10.0,SW,4.6,-,N/A,,Partly Cloudy,230,2013-08-31 14:15:00
10:35 AM,78.8,71.6,78,29.91,10.0,SW,5.8,-,N/A,,Clear,230,2013-08-31 14:35:00
10:55 AM,78.8,71.6,78,29.91,10.0,SSW,3.5,-,N/A,,Scattered Clouds,200,2013-08-31 14:55:00
11:15 AM,80.6,71.6,74,29.91,10.0,WSW,3.5,-,N/A,,Scattered Clouds,240,2013-08-31 15:15:00
11:35 AM,80.6,71.6,74,29.91,10.0,SW,3.5,-,N/A,,Partly Cloudy,230,2013-08-31 15:35:00
11:55 AM,82.4,73.4,74,29.90,10.0,WSW,4.6,-,N/A,,Partly Cloudy,240,2013-08-31 15:55:00
12:15 PM,82.4,73.4,74,29.90,10.0,SW,4.6,-,N/A,,Clear,220,2013-08-31 16:15:00
12:35 PM,82.4,73.4,74,29.89,10.0,Calm,Calm,-,N/A,,Clear,0,2013-08-31 16:35:00
12:55 PM,84.2,73.4,70,29.88,10.0,South,4.6,-,N/A,,Partly Cloudy,180,2013-08-31 16:55:00
1:15 PM,84.2,71.6,66,29.89,10.0,SW,4.6,-,N/A,,Scattered Clouds,220,2013-08-31 17:15:00
1:35 PM,82.4,73.4,74,29.89,10.0,SSE,3.5,-,N/A,,Mostly Cloudy,160,2013-08-31 17:35:00
1:55 PM,82.4,73.4,74,29.88,10.0,South,3.5,-,N/A,,Mostly Cloudy,180,2013-08-31 17:55:00
2:15 PM,84.2,73.4,70,29.88,10.0,SSE,5.8,-,N/A,,Mostly Cloudy,160,2013-08-31 18:15:00
2:35 PM,82.4,73.4,74,29.88,10.0,SSE,4.6,-,N/A,,Mostly Cloudy,150,2013-08-31 18:35:00
2:55 PM,84.2,73.4,70,29.88,10.0,SSW,5.8,-,N/A,,Scattered Clouds,200,2013-08-31 18:55:00
3:15 PM,84.2,73.4,70,29.87,10.0,South,5.8,-,N/A,,Clear,190,2013-08-31 19:15:00
3:35 PM,84.2,71.6,66,29.86,10.0,South,3.5,-,N/A,,Partly Cloudy,170,2013-08-31 19:35:00
3:55 PM,82.4,71.6,70,29.86,10.0,South,5.8,-,N/A,,Partly Cloudy,180,2013-08-31 19:55:00
4:15 PM,82.4,71.6,70,29.86,10.0,SSW,5.8,-,N/A,,Clear,210,2013-08-31 20:15:00
4:35 PM,82.4,71.6,70,29.85,10.0,South,5.8,-,N/A,,Clear,190,2013-08-31 20:35:00
4:55 PM,80.6,71.6,74,29.85,10.0,South,5.8,-,N/A,,Clear,190,2013-08-31 20:55:00
5:15 PM,80.6,71.6,74,29.84,10.0,SSE,4.6,-,N/A,,Clear,160,2013-08-31 21:15:00
5:35 PM,80.6,71.6,74,29.85,10.0,Calm,Calm,-,N/A,,Clear,0,2013-08-31 21:35:00
5:55 PM,80.6,71.6,74,29.85,10.0,Calm,Calm,-,N/A,,Clear,0,2013-08-31 21:55:00
6:15 PM,80.6,73.4,79,29.85,10.0,Calm,Calm,-,N/A,,Clear,0,2013-08-31 22:15:00
6:35 PM,78.8,73.4,83,29.85,10.0,Calm,Calm,-,N/A,,Clear,0,2013-08-31 22:35:00
6:55 PM,78.8,71.6,78,29.85,10.0,Calm,Calm,-,N/A,,Clear,0,2013-08-31 22:55:00
7:15 PM,78.8,73.4,83,29.85,10.0,South,3.5,-,N/A,,Clear,180,2013-08-31 23:15:00
7:35 PM,78.8,71.6,78,29.86,10.0,Calm,Calm,-,N/A,,Clear,0,2013-08-31 23:35:00
7:55 PM,78.8,71.6,78,29.86,10.0,South,3.5,-,N/A,,Clear,180,2013-08-31 23:55:00
8:15 PM,78.8,71.6,78,29.87,10.0,SSE,3.5,-,N/A,,Clear,160,2013-09-01 00:15:00
8:35 PM,78.8,71.6,78,29.88,10.0,Calm,Calm,-,N/A,,Clear,0,2013-09-01 00:35:00
8:55 PM,78.8,71.6,78,29.89,10.0,Calm,Calm,-,N/A,,Clear,0,2013-09-01 00:55:00
9:15 PM,77.0,71.6,83,29.89,10.0,Calm,Calm,-,N/A,,Partly Cloudy,0,2013-09-01 01:15:00
9:35 PM,77.0,73.4,89,29.89,10.0,Calm,Calm,-,N/A,,Partly Cloudy,0,2013-09-01 01:35:00
9:55 PM,75.2,73.4,94,29.89,8.0,Calm,Calm,-,N/A,,Clear,0,2013-09-01 01:55:00
10:15 PM,75.2,73.4,94,29.89,10.0,Calm,Calm,-,N/A,,Partly Cloudy,0,2013-09-01 02:15:00
10:35 PM,75.2,73.4,94,29.89,10.0,Calm,Calm,-,N/A,,Partly Cloudy,0,2013-09-01 02:35:00
10:55 PM,75.2,73.4,94,29.89,10.0,SSW,3.5,-,N/A,,Clear,200,2013-09-01 02:55:00
11:15 PM,75.2,73.4,94,29.88,10.0,Calm,Calm,-,N/A,,Clear,0,2013-09-01 03:15:00
11:35 PM,75.2,73.4,94,29.88,10.0,Calm,Calm,-,N/A,,Scattered Clouds,0,2013-09-01 03:35:00
11:55 PM,75.2,73.4,94,29.87,10.0,SW,3.5,-,N/A,,Partly Cloudy,230,2013-09-01 03:55:00